Regional Weather Roundup
Issued by NWS

Home | Current Version | Previous Version | Text Only | Print | Product List | Glossary Off
Versions: 1 2 3 4 5 6 7 8 9 10 11 12 13 14 15 16 17 18 19 20 21 22 23 24 25 26 27 28 29 30 31 32 33 34 35 36 37 38 39 40 41 42 43 44 45 46 47 48 49 50

000
ASUS43 KOAX 210802
RWRNE

WEATHER ROUNDUP FOR NEBRASKA
NATIONAL WEATHER SERVICE OMAHA NE
200 AM CST SUN JAN 21 2018

NOTES: SATELLITE DATA IS BEING USED TO AUGMENT CLOUD COVER ABOVE
       12000 FEET.
       "FAIR" INDICATES FEW OR NO CLOUDS BELOW 12,000 FEET WITH NO
       SIGNIFICANT WEATHER AND/OR OBSTRUCTIONS TO VISIBILITY.


NEZ001>004-019>022-054>056-210900-
NEBRASKA PANHANDLE

CITY           SKY/WX    TMP DP  RH WIND       PRES   REMARKS
SCOTTSBLUFF    CLOUDY    31  30  96 NE13      29.87F WCI  21
ALLIANCE       LGT SNOW  30  30 100 NE14      29.87F FOG     WCI  19
CHADRON        LGT SNOW  30  29  96 NE14      29.95S FOG     WCI  19
GORDON         LGT SNOW  32  30  94 NE12      29.91S WCI  23
KIMBALL        CLOUDY    29  28  96 NE10      29.81F WCI  20
SIDNEY         CLOUDY    30  27  88 NE13      29.83F WCI  20
$$

NEZ057>060-069>072-079>082-210900-
SOUTHWEST NEBRASKA

CITY           SKY/WX    TMP DP  RH WIND       PRES   REMARKS
NORTH PLATTE   PTCLDY    33  29  85 NE17G25   29.82F WCI  22
IMPERIAL       CLOUDY    32  29  88 NE15      29.81F WCI  22
LEXINGTON      MOCLDY    32  29  86 NE10      29.81F WCI  24
MCCOOK         MOCLDY    30  27  88 N14       29.78F WCI  19
OGALLALA       CLOUDY    35  31  87 NE18      29.84F WCI  24
$$

NEZ005>010-023>029-035>040-094-210900-
NORTH CENTRAL NEBRASKA

CITY           SKY/WX    TMP DP  RH WIND       PRES   REMARKS
VALENTINE      CLOUDY    35  31  85 N14       29.93S WCI  26
AINSWORTH      CLOUDY    34  34 100 N13       29.90F WCI  25
BROKEN BOW     MOCLDY    33  29  85 N16G23    29.82F WCI  23
O`NEILL        MOCLDY    32  32  99 N9        29.89F WCI  24
ORD            MOCLDY    32  29  88 N13       29.83F WCI  22
THEDFORD       CLOUDY    34  34  98 N15       29.87F WCI  25
$$

NEZ041-046>049-061>064-073>077-083>087-210900-
SOUTH CENTRAL NEBRASKA

CITY           SKY/WX    TMP DP  RH WIND       PRES   REMARKS
GRAND ISLAND   CLOUDY    34  31  88 N9        29.82F WCI  27
AURORA         CLOUDY    35  31  86 N9        29.81F WCI  28
HASTINGS       CLOUDY    35  30  82 NE12      29.79F WCI  27
HEBRON         CLOUDY    39  38  98 NE9       29.78F FOG     WCI  33
HOLDREGE       CLOUDY    34  32  92 N14       29.78F WCI  24
KEARNEY        CLOUDY    34  30  85 N15       29.80F WCI  24
YORK           PTCLDY    37  34  87 NE9       29.82S WCI  31
$$

NEZ011>018-030>034-042>045-210900-
NORTHEAST NEBRASKA

CITY           SKY/WX    TMP DP  RH WIND       PRES   REMARKS
NORFOLK        CLOUDY    33  28  81 N3        29.86R
ALBION         CLOUDY    33  31  89 N14       29.84S WCI  24
BLAIR          CLOUDY    38  35  88 N9        29.83F WCI  32
COLUMBUS       CLOUDY    36  30  79 NE6       29.84F WCI  31
FREMONT        CLOUDY    37  33  84 CALM      29.85S
TEKAMAH        CLOUDY    35  30  82 N8        29.86S WCI  29
WAYNE          CLOUDY    32  31  96 NE5       29.87R WCI  27
$$

NEZ050>053-065>068-078-088>093-210900-
SOUTHEAST NEBRASKA

CITY           SKY/WX    TMP DP  RH WIND       PRES   REMARKS
LINCOLN        CLOUDY    41  37  86 N7        29.84S
OMAHA EPPLEY   CLOUDY    38  35  89 N6        29.85S WCI  33
BEATRICE       SNOW      37  37 100 NE8       29.79S VSB 1/4 WCI  31
FALLS CITY     CLOUDY    38  38 100 E7        29.80S FOG     WCI  33
NEBRASKA CITY  CLOUDY    38  38 100 N5        29.82S FOG     WCI  34
PLATTSMOUTH    CLOUDY    40  39  99 NE3       29.83F FOG
$$

NEZ044-045-051>053-067-210900-
OMAHA AREA

CITY           SKY/WX    TMP DP  RH WIND       PRES   REMARKS
OMAHA EPPLEY   CLOUDY    38  35  89 N6        29.85S WCI  33
BLAIR          CLOUDY    38  35  88 N9        29.83F WCI  32
FREMONT        CLOUDY    37  33  84 CALM      29.85S
MILLARD        CLOUDY    42  38  86 CALM      29.84S
OFFUTT AFB     CLOUDY    41  38  89 CALM      29.83S
PLATTSMOUTH    CLOUDY    40  39  99 NE3       29.83F FOG
WAHOO          CLOUDY    38  33  82 N8        29.84S WCI  32
$$




USA.gov is the U.S. government's official web portal to all federal, state and local government web resources and services.